Weather in Velikiy Zakhod

Russia / Novgorod Oblast     57°36′39″N   32°07′25″E
temp.,
°C
wind,
m/s
gust,
m/s
humid.,
%
clouds,
%
prec.,
mm/h
press.,
hPa
HPBL,
m
26 january, tue
tue2600:00+3se41094100 0.1 1006417
03:00+2se31093100 0.1 1005402
06:00+3ese51286100 0.0 1003522
09:00+3ese51389100 0.0 1002570
12:00+4ese51286100 0.1 1001858
15:00+3ese41285100 0.1 1000784
18:00+2e41188100 0.0 999759
21:00+1ese4994100 0.1 997566
27 january, wed
wed2700:00+1se4987100 0.2 997679
03:00−1ese398985 0.2 996432
06:00−1e278855 0.0 995272
09:00−1ene129572 0.0 99659
12:000wsw239190 0.1 998306
15:000wsw358686 0.1 1000580
18:00−1ssw268997 0.1 1003285
21:00−1s229396 0.1 100477
28 january, thu
thu2800:00−1sse129291 0.0 100684
03:00−1sse129794 0.1 100736
06:00−1ese129793 0.1 100739
09:00−1sse259697 0.1 1007174
12:000se2590100 0.1 1007312
15:00+1se3685100 0.1 1005437
18:00−1e2697100 0.2 1004343
21:00−1e3796100 1.4 1001535
29 january, fri
fri2900:00−1ese3796100 1.1 1000396
03:00+1e2696100 1.4 997240
06:00+3se31094100 0.3 996450
09:00+3se31194100 0.3 995609
12:00+2se4977100 0.0 995894
15:00+1se3778100 0.0 994765
18:00−1ese2689100 0.0 994203
21:00−1ese2593100 0.0 992146
30 january, sat
sat3000:00−2ese1294100 0.0 99172
03:00−2ene1295100 0.0 99050
06:00−2ese1396100 0.1 988142
09:00−3ene129698 0.2 98749
12:00−1ese1385100 0.1 987376
15:00−1ese128293 0.1 987400
18:00−2e0096100 0.1 98821
21:00−3sse1295100 0.3 988121